MET995 - Kuala Lumpur International Airport to Hong Kong

Airbus A330-243
787MT
3 hrs 30 mins
1375 nm
Scheduled - M | TU | TH

Bid/PiRep Status

Bid was submitted on January 2nd, 2017 16:27 UTC.
PiRep # 74582: Approved by Dave Nichols on January 3rd, 2017 5:15 UTC

Departure

Departing from
Kuala Lumpur International Airport (KUL)
Departure gate
Ramp
Scheduled Departure
GMT 1145
Local 1945
METAR WMKK 240000Z 25011KT 190V300 9000 TS FEW017CB SCT030 BKN280 25/22 Q1011 TEMPO 5000 TSRA
TAF TAF WMKK 232300Z 2400/2506 17008KT 9999 FEW017CB SCT140 BKN280 TEMPO 2400/2404 4000 TSRA FEW015CB SCT018 BKN150
  • No charts available

Arrival

Arriving at
Hong Kong (HKG)
Arrival gate
Ramp
Scheduled Arrival
GMT 1515
Local 2315
METAR VHHH 240100Z 15010KT 090V190 9999 FEW015 SCT026 31/25 Q1008 NOSIG
TAF TAF VHHH 232300Z 2400/2506 13010KT 7000 FEW015 SCT025 TX32/2406Z TX32/2506Z TN28/2422Z TEMPO 2418/2424 VRB05KT TEMPO 2500/2506 3500 SHRA FEW010CB SCT020

Route Map

Planning Resources

PIBOS.A M763 ENREP L642 EPDOS ACORN DUMOL1A
VKL G334 VPT RAXIM M771 CH
ISTANA ISTAN G584 PK L629 DOLOX M771 DUMOL DUMOL1B
VKR R208 IGARI M765 DAGAG M771 DULOP CARSO V551 BETTY BETY2A
Route:
OFP Layout:
Units:
Detailed Navlog:
ETOPS Planning:
Plan Stepclimbs:
Runway Analysis:
Include NOTAMS:
FIR NOTAMS:
Flight Maps:

Return Flights

MET994
Airbus A330-243
0715 GMT

Popularity

Hub Current Bids PiReps this month Total PiReps
KMCI 0 0 3
KLAX 0 0 2
KBOS 0 0 0